Location: San Antonio
(29.4240°N, 98.4930°W)
Time: 08:49:15
(UTC-05:00)

Vanguard 2 - Visible Passes

Search period start: 14 July 2024 00:00
Search period end: 24 July 2024 00:00
Orbit: 552 x 2913 km, 32.9° (Epoch: 13 July)

Date Brightness Start Highest point End Pass type
(mag) Time Alt. Az. Time Alt. Az. Time Alt. Az.
14 Jul 10.2 01:33:35 18° ENE 01:33:35 18° ENE 01:35:41 10° ENE visible
14 Jul 8.7 03:34:44 45° WNW 03:37:15 73° N 03:48:33 10° E visible
14 Jul 9.4 05:38:26 10° WNW 05:47:19 71° SSW 06:02:03 10° ESE visible
15 Jul 10.1 01:47:22 21° ENE 01:47:22 21° ENE 01:50:08 10° ENE visible
15 Jul 8.7 03:48:31 40° WNW 03:51:36 79° NNE 04:03:09 10° E visible
15 Jul 9.5 05:52:44 10° WNW 06:01:38 60° SSW 06:16:05 10° SE visible
16 Jul 9.9 02:01:18 24° ENE 02:01:18 24° ENE 02:04:38 10° E visible
16 Jul 8.6 04:02:28 37° WNW 04:05:55 89° NNE 04:17:40 10° ESE visible
16 Jul 9.7 06:07:07 10° W 06:15:56 49° SSW 06:29:51 10° SE visible
16 Jul 8.5 21:52:04 10° SSW 21:53:44 17° S 21:53:44 17° S visible
17 Jul 9.8 02:15:23 26° E 02:15:23 26° E 02:19:11 10° E visible
17 Jul 8.6 04:16:35 35° W 04:20:12 80° SSW 04:32:02 10° ESE visible
17 Jul 8.0 22:05:30 10° SW 22:08:04 27° S 22:08:04 27° S visible
18 Jul 9.8 02:29:41 27° E 02:29:41 27° E 02:33:43 10° E visible
18 Jul 8.7 04:30:52 34° W 04:34:29 66° SSW 04:46:15 10° ESE visible
18 Jul 7.4 22:19:18 10° SW 22:22:18 40° SSW 22:22:18 40° SSW visible
19 Jul 9.8 02:44:07 27° E 02:44:07 27° E 02:48:15 10° E visible
19 Jul 8.9 04:45:20 33° W 04:48:46 53° SSW 05:00:14 10° SE visible
19 Jul 7.3 22:33:20 10° WSW 22:36:24 49° SW 22:36:24 49° SW visible
20 Jul 9.9 02:58:43 26° ESE 02:58:43 26° ESE 03:02:42 10° ESE visible
20 Jul 9.2 04:59:56 31° WSW 05:03:04 42° SSW 05:13:56 10° SE visible
20 Jul 7.7 22:47:31 10° WSW 22:50:21 45° W 22:50:21 45° W visible
21 Jul 10.0 03:13:25 24° ESE 03:13:25 24° ESE 03:17:00 10° ESE visible
21 Jul 9.4 05:14:38 26° WSW 05:17:25 32° SSW 05:27:19 10° SSE visible
21 Jul 7.7 20:53:35 10° SW 20:58:00 35° SSE 21:01:39 10° E visible
21 Jul 8.3 23:01:48 10° W 23:04:11 34° W 23:04:11 34° W visible
22 Jul 10.2 03:28:10 20° SE 03:28:10 20° SE 03:31:08 10° SE visible
22 Jul 9.7 05:29:23 21° SW 05:31:48 23° SSW 05:40:15 10° SSE visible
22 Jul 7.2 21:07:27 10° SW 21:12:10 52° SSE 21:16:00 10° E visible
22 Jul 8.8 23:16:07 10° W 23:17:55 25° WNW 23:17:55 25° WNW visible
23 Jul 10.4 03:42:54 17° SE 03:42:54 17° SE 03:45:02 10° SE visible
23 Jul 10.0 05:44:08 15° SW 05:46:14 17° SSW 05:52:29 10° S visible
23 Jul 6.9 21:21:32 10° WSW 21:26:20 76° SSE 21:30:15 10° ENE visible
23 Jul 9.3 23:30:25 10° WNW 23:31:32 18° WNW 23:31:32 18° WNW visible
